Regional Weather Roundup
Issued by NWS

Home | Current Version | Previous Version | Graphics & Text | Print | Product List | Glossary On
Versions: 1 2 3 4 5 6 7 8 9 10 11 12 13 14 15 16 17 18 19 20 21 22 23 24 25 26 27 28 29 30 31 32 33 34 35 36 37 38 39 40 41 42 43 44 45 46 47 48 49 50
000
ASUS43 KLOT 242308
RWRIL

ILLINOIS REGIONAL WEATHER ROUNDUP
NATIONAL WEATHER SERVICE CHICAGO/ROMEOVILLE IL
500 PM CST FRI NOV 24 2017

NOTE: "FAIR" INDICATES FEW OR NO CLOUDS BELOW 12,000 FEET WITH NO
SIGNIFICANT WEATHER AND/OR OBSTRUCTIONS TO VISIBILITY.

* THESE STATIONS ARE NOT UNDER NWS QUALITY CONTROL. THEY ALSO MAY NOT
  REPORT WEATHER SUCH AS PRECIPITATION OR FOG.

ILZ001-002-007-009-015-016-024-250000-
NORTHWEST ILLINOIS

CITY           SKY/WX    TMP DP  RH WIND       PRES   REMARKS
MOLINE         CLEAR     68  39  34 SW16      29.45R
STERLING*      CLEAR     59  41  51 SW3       29.46R
SAVANNA*       CLEAR     64  40  41 W12       29.44R
$$

ILZ003-004-008-010-011-017-018-250000-
NORTH CENTRAL ILLINOIS

CITY           SKY/WX    TMP DP  RH WIND       PRES   REMARKS
ROCKFORD       PTCLDY    51  39  63 S9        29.44R
FREEPORT*      CLEAR     60  40  47 S16G23    29.43R
ROCHELLE*      CLEAR     53  41  63 S13       29.46R
DE KALB*       CLEAR     53  41  63 S15       29.46R
PERU*          PTCLDY    59  39  48 S16G24    29.48R
$$

ILZ005-006-012>014-019>023-250000-
NORTHEAST ILLINOIS

CITY           SKY/WX    TMP DP  RH WIND       PRES   REMARKS
CHICAGO-OHARE  PTCLDY    58  39  49 S20G28    29.45S
CHICAGO-MIDWAY PTCLDY    57  40  52 S21G28    29.47F
AURORA         CLEAR     58  40  51 S17       29.47R
LANSING*       CLEAR     54  41  61 S23       29.51S
JOLIET*        CLEAR     59  41  52 S17G23    29.49S
WAUKEGAN       CLEAR     59  39  47 SW22G29   29.43R
DUPAGE AIRPORT CLEAR     57  41  55 S17G29    29.46R
KANKAKEE*      CLEAR     53  38  57 S18G29    29.54S
WHEELING       CLEAR     59  40  49 S20G26    29.46S
MORRIS*        CLEAR     57  40  52 S18       29.47F
ROMEOVILLE*    CLEAR     55  40  57 S18       29.48S
NORTHERLY ISL    N/A     57  37  47 SE17        N/A
$$

LMZ740>746-250000-
SOUTHERN LAKE MICHIGAN

STATION/POSITION SKY/WX   TEMP    WIND        PRES    VSBY  WAVE
                          AIR SEA DIR/SP/G                  HT/PER
                          (F)     (DEG/KT/KT) (MB)    (MI)  (FT/S)
SOUTHERN BUOY              51 47  190/ 23/ 27  996.0F         6/ 6
HARRISON CRIB              57     200/ 31/ 35   N/A
BURNHAM HARBOR             57     160/ 16/ 23   N/A
CALUMET HARBOR             57                  997.8F
BURNS HARBOR               55     190/ 20/ 27  999.3F
MICHIGAN CITY              56     160/ 22/ 26   N/A
$$

ILZ025>027-034>036-040-047-049-050-058-095>099-250000-
WEST-CENTRAL ILLINOIS

CITY           SKY/WX    TMP DP  RH WIND       PRES   REMARKS
QUINCY         CLEAR     67  38  34 SW14      29.53R
GALESBURG*     CLEAR     62  42  47 SW10      29.51R
MACOMB*        PTCLDY    66  37  35 SW14      29.53R
JACKSONVILLE*  CLEAR     65  38  36 MISG      29.55S
PITTSFIELD*    CLEAR     69  38  32 S13       29.56S
$$

ILZ028>032-037-038-041>044-048-051>054-059>061-250000-
CENTRAL ILLINOIS

CITY           SKY/WX    TMP DP  RH WIND       PRES   REMARKS
PONTIAC        CLEAR     58  42  54 S17G25    29.51F
BLOOMINGTON    CLEAR     56  40  55 S18       29.55F
DECATUR        CLEAR     58  38  47 S17       29.59F
PEORIA         CLEAR     61  39  44 S15G25    29.51R
LACON*         PTCLDY    62  39  42 SW16G22   29.48R
LINCOLN*       CLEAR     60  42  50 S15G25    29.54F
SPRINGFIELD    CLEAR     62  41  46 S16G26    29.56F
TAYLORVILLE    CLEAR     57  38  50 S17G23    29.60S
$$

ILZ033-039-045-046-055>057-062-063-250000-
EAST-CENTRAL ILLINOIS

CITY           SKY/WX    TMP DP  RH WIND       PRES   REMARKS
CHAMPAIGN      CLEAR     54  37  52 S22       29.60F
DANVILLE*      CLEAR     52  35  52 S20G25    29.59F
RANTOUL*       CLEAR     53  41  62 S15       29.59F
MATTOON        CLEAR     55  36  48 S15       29.64S
PARIS*         CLEAR     51  37  58 S17       29.66F
$$

ILZ079-100>102-250000-
SOUTHWEST ILLINOIS

CITY           SKY/WX    TMP DP  RH WIND       PRES   REMARKS
ALTON          PTCLDY    63  41  45 S14G20    29.62F
BELLEVILLE     MOCLDY    59  36  42 S15       29.64F
CAHOKIA*       CLEAR     65  35  33 S12G20    29.63F
SPARTA*        CLEAR     58  36  42 S13G20    29.70F
$$

ILZ064>066-069>071-074>076-080>082-084>086-088>090-092>094-250000-
SOUTH-CENTRAL ILLINOIS

CITY           SKY/WX    TMP DP  RH WIND       PRES   REMARKS
CARBONDALE     CLEAR     57  36  45 S16       29.75R
CAIRO*         CLEAR     57  36  45 S9        29.80S
EFFINGHAM*     CLEAR     58  36  43 SE10      29.68F
MARION         PTCLDY    59  36  41 S16G23    29.75F
MT. VERNON     CLEAR     57  36  45 S12       29.72S
CENTRALIA*     CLEAR     58  38  46 S20       29.68F
SALEM*         CLEAR     60  35  39 S12       29.68S
METROPOLIS*    CLEAR     57  34  41 S6        29.81S
$$

ILZ067-068-072-073-078-083-087-091-250000-
SOUTHEAST ILLINOIS

CITY           SKY/WX    TMP DP  RH WIND       PRES   REMARKS
LAWRENCEVILLE  CLEAR     53  36  52 S14       29.74F
FLORA*         CLEAR     56  37  49 S13       29.70F
FAIRFIELD*     CLEAR     55  36  49 S5        29.72F
HARRISBURG*    CLEAR     58  35  42 S8        29.77R
ROBINSON*      CLEAR     53  35  50 S14       29.72F
CARMI*         CLEAR     54  36  50 S14       29.75S
$$

ABBREVIATIONS USED IN REMARKS
   TC - TEMPERATURE IN CELSIUS
  WCI - WIND CHILL INDEX
   HX - HEAT INDEX
  VSB - VISIBILITY
$$




USA.gov is the U.S. government's official web portal to all federal, state and local government web resources and services.